SCP
0 0 0 1 1 0 0 0 0 0 0 0 0 0 0 0 0 0 0 0 0 0 0 0 0 0 0 0 0 0 0 0 0 0 0 0 0 0 0 0 0 0 0 0 0 0 0 0 0
0 0 1 1 1 0 0 0 0 0 0 0 0 0 0 0 0 0 0 0 0 0 0 0 0 0 0 0 0 0 0 0 0 0 0 0 0 0 0 0 0 0 0 0 0 0 0 0 0
0 1 1 1 0 0 0 0 0 0 0 0 0 0 0 0 0 0 0 0 0 0 0 0 0 0 0 0 0 0 0 0 0 0 0 0 0 0 0 0 0 0 0 0 0 0 0 0 0
1 1 1 1 0 0 0 0 0 0 0 0 0 0 0 0 0 0 0 0 0 0 0 0 0 0 0 0 0 0 0 0 0 0 0 0 0 0 0 0 0 0 0 0 0 0 0 0 0
1 1 1 0 0 0 0 0 0 0 0 0 0 0 0 0 0 0 0 0 0 0 0 0 0 0 0 0 0 0 0 0 0 0 0 0 0 0 0 0 0 0 0 0 0 0 0 0 0
1 1 1 0 0 0 0 0 0 0 0 0 0 0 0 0 0 0 0 0 0 0 0 0 0 0 0 0 0 0 0 0 0 0 0 0 0 0 0 0 0 0 0 0 0 0 0 0 0
1 1 0 0 0 0 0 0 0 0 0 0 0 0 0 0 0 0 0 0 0 0 0 0 0 0 0 0 0 0 0 0 0 0 0 0 0 0 0 0 0 0 0 0 0 0 0 0 0
1 0 0 0 0 0 0 0 0 0 0 0 0 0 0 0 0 0 0 0 0 0 0 0 0 0 0 0 0 0 0 0 0 0 0 0 0 0 0 0 0 0 0 0 0 0 0 0 0
0 0 0 0 0 0 0 0 0 0 0 0 0 0 0 0 0 0 0 0 0 0 0 0 0 0 0 0 0 0 0 0 0 0 0 0 0 0 0 0 0 0 0 0 0 0 0 0 0
0 0 0 0 0 0 0 0 0 0 0 0 0 0 0 0 0 0 0 0 0 0 0 0 0 0 0 0 0 0 0 0 0 0 0 0 0 0 0 0 0 0 0 0 0 0 0 0 0
0 0 0 0 0 0 0 0 0 0 0 0 0 0 0 0 0 0 0 0 0 0 0 0 0 0 0 0 0 0 0 0 0 0 0 0 0 0 0 0 0 0 0 0 0 0 0 0 0
0 0 0 0 0 0 0 0 0 0 0 0 0 0 0 0 0 0 0 0 0 0 0 0 0 0 0 0 0 0 0 0 0 0 0 0 0 0 0 0 0 0 0 0 0 0 0 0 0
0 0 0 0 0 0 0 0 0 0 0 0 0 0 0 0 0 0 0 0 0 0 0 0 0 0 0 0 0 0 0 0 0 0 0 0 0 0 0 0 0 0 0 0 0 0 0 0 0
0 0 0 0 0 0 0 0 0 0 0 0 0 0 0 0 0 0 0 0 0 0 0 0 0 0 0 0 0 0 0 0 0 0 0 0 0 0 0 0 0 0 0 0 0 0 0 0 0
0 0 0 0 0 0 0 0 0 0 0 0 0 0 0 0 0 0 0 0 0 0 0 0 0 0 0 0 0 0 0 0 0 0 0 0 0 0 0 0 0 0 0 0 0 0 0 0 0
0 0 0 0 0 0 0 0 0 0 0 0 0 0 0 0 0 0 0 0 0 0 0 0 0 0 0 0 0 0 0 0 0 0 0 0 0 0 0 0 0 0 0 0 0 0 0 0 0
0 0 0 0 0 0 0 0 0 0 0 0 0 0 0 0 0 0 0 0 0 1 1 0 0 0 0 0 0 0 0 0 0 0 0 0 0 0 0 0 0 0 0 0 0 0 0 0 0
0 0 0 0 0 0 0 0 0 0 0 0 0 0 0 0 0 0 0 0 0 1 1 1 1 1 1 0 0 0 0 0 0 0 0 0 0 0 0 0 0 0 0 0 0 0 0 0 0
0 0 0 0 0 0 0 0 0 0 0 0 0 0 0 0 0 0 0 0 1 1 1 1 1 1 1 1 0 0 0 0 0 0 0 0 0 0 0 0 0 0 0 0 0 0 0 0 0
0 0 0 0 0 0 0 0 0 0 0 0 0 0 0 0 0 0 0 1 1 1 1 1 1 1 1 1 1 1 0 0 0 0 0 0 0 0 0 0 0 0 0 0 0 0 0 0 0
0 0 0 0 0 0 0 0 0 0 0 0 0 0 0 0 0 1 1 1 1 1 1 1 1 1 1 1 1 1 1 0 0 0 1 1 1 0 0 0 0 0 0 1 1 1 1 1 1
0 0 0 0 0 0 0 0 0 0 0 0 0 0 0 0 1 1 1 1 1 1 1 1 1 1 1 1 1 1 1 1 1 1 1 1 1 1 1 1 1 1 1 1 1 1 1 1 1
0 0 0 0 0 0 0 0 0 0 0 0 0 0 0 0 1 1 1 1 1 1 1 1 2 2 2 1 1 1 1 1 1 1 1 1 1 1 1 1 1 1 1 1 1 1 1 1 1
0 0 0 0 0 0 0 0 0 0 0 0 0 0 0 0 1 1 1 1 1 1 1 1 2 2 2 2 1 1 1 1 1 1 1 1 1 1 1 1 1 1 1 1 1 1 1 1 1
0 0 0 0 0 0 0 0 0 0 0 0 0 0 0 0 1 1 1 1 1 1 1 2 2 2 2 2 2 1 1 1 1 1 1 1 1 1 1 1 1 1 1 1 1 1 1 1 1
0 0 0 0 0 0 0 0 0 0 0 0 0 0 0 1 1 1 1 1 1 1 2 2 2 2 2 2 1 1 1 1 1 1 1 1 1 1 1 1 1 1 1 1 1 1 1 1 1
0 0 0 0 0 0 0 0 0 0 0 0 1 1 1 1 1 1 1 1 1 1 2 2 2 2 2 2 1 1 1 1 1 1 1 1 1 1 1 1 1 1 1 1 1 1 1 1 1
0 0 0 0 0 0 0 0 0 0 0 0 1 1 1 1 1 1 1 1 1 1 2 2 2 2 2 1 1 1 1 1 1 1 1 1 1 1 1 1 1 1 1 1 1 1 1 1 1
0 0 0 0 0 0 0 0 0 0 0 0 1 1 1 1 1 1 1 2 2 2 1 1 1 1 2 2 1 1 1 1 1 1 1 1 1 1 1 1 1 1 1 1 1 1 1 1 1
0 0 0 0 0 0 0 0 0 0 0 0 0 1 1 1 1 1 1 2 2 2 1 1 1 1 2 2 2 1 1 1 1 1 1 1 1 1 1 1 1 1 1 1 1 1 1 1 1
Wind_Speed
9 10 8 4 4 3 5 8 10 9 10 9 11 11 14 15 10 9 7 10 14 14 12 12 11 11 11 11 11 11 11 11 10 9 8 8 7 7 7 6 6 6 5 5 5 5 5 5 4
9 9 6 4 3 2 7 10 10 10 9 9 12 13 15 14 13 11 9 10 14 14 12 12 12 11 11 11 10 11 11 10 10 9 8 7 6 6 6 5 5 5 5 4 5 4 4 4 4
11 10 5 4 1 6 9 9 9 9 9 10 12 13 12 11 12 9 9 11 13 14 13 12 12 11 11 11 10 10 10 10 9 8 7 6 6 5 5 5 5 5 5 4 5 4 4 4 4
7 5 5 3 3 9 9 7 7 9 10 10 11 11 12 11 10 10 10 11 13 14 14 13 12 12 11 11 10 10 10 9 8 7 6 6 5 5 5 5 4 4 4 5 5 5 4 4 5
7 4 3 1 7 9 8 8 9 10 11 11 13 14 13 11 12 11 10 11 13 14 14 13 13 12 11 11 10 10 9 9 8 6 6 5 5 4 4 4 4 4 4 5 5 5 5 5 6
5 4 2 3 8 9 8 8 10 10 9 10 12 14 12 10 10 9 9 10 13 14 14 12 13 12 11 11 10 9 9 8 7 6 6 5 5 4 4 4 4 4 5 5 6 6 6 6 6
7 3 2 4 7 8 8 8 9 9 9 9 10 13 11 9 9 8 8 10 12 13 13 11 11 11 11 11 10 9 9 8 7 6 6 5 5 5 5 4 4 4 5 5 6 7 7 7 7
5 4 3 4 7 8 6 7 9 9 9 7 7 9 10 10 9 8 8 9 10 11 11 11 11 10 9 10 10 10 9 7 7 6 5 5 5 6 6 6 5 5 4 5 7 7 8 8 9
4 3 3 6 6 7 5 6 8 9 9 9 11 12 13 13 10 8 8 8 7 8 8 9 10 9 9 9 10 9 9 8 7 5 5 5 4 4 5 6 7 6 6 7 8 9 10 9 10
2 0 4 5 5 6 5 6 6 7 8 9 11 13 14 12 10 9 8 8 7 6 7 7 7 7 7 6 7 5 6 6 5 4 4 3 3 2 3 7 8 7 7 8 10 10 10 8 6
2 1 3 3 4 5 5 6 4 5 8 8 11 13 12 11 9 8 8 8 7 6 6 8 6 5 5 4 4 3 3 4 4 4 3 2 2 2 2 3 4 5 6 5 6 7 5 5 4
2 2 2 2 3 4 5 4 6 8 9 9 11 13 12 11 10 9 9 9 7 6 6 7 7 5 4 4 3 3 2 3 2 3 2 1 1 1 0 1 1 2 2 2 2 2 3 3 3
4 1 0 1 2 5 4 4 6 8 9 11 12 12 11 10 10 9 9 9 7 5 6 7 6 5 4 3 0 2 2 2 3 3 1 1 1 0 0 0 0 1 1 1 1 1 2 2 2
4 4 2 2 3 5 4 4 5 8 10 10 10 10 10 10 10 9 8 8 7 6 6 7 7 6 4 2 1 1 2 2 2 2 2 2 1 0 0 1 1 1 1 0 1 1 2 2 2
4 6 4 3 4 4 5 5 4 8 10 10 9 9 10 9 10 9 8 7 7 7 7 7 6 7 4 3 1 2 1 2 2 2 2 1 1 0 1 1 0 1 1 1 1 1 1 2 2
8 7 4 3 3 4 3 4 6 7 9 9 9 9 10 9 9 9 9 6 6 7 7 5 5 7 5 3 1 1 1 2 1 1 2 1 1 0 1 1 0 1 1 1 1 1 1 1 1
8 6 3 3 3 4 3 5 6 7 9 9 9 9 9 9 9 9 9 8 7 7 7 5 4 6 5 3 2 1 1 1 0 1 1 1 0 1 1 0 0 1 1 1 1 0 1 1 2
7 5 3 4 3 3 3 5 7 7 8 9 9 9 9 9 9 9 8 9 8 7 7 6 4 5 4 3 2 1 1 1 1 1 1 1 0 0 1 1 0 1 0 0 1 1 1 1 2
10 6 4 2 3 3 3 6 6 6 7 8 9 9 9 9 10 10 9 9 9 8 7 6 5 4 3 2 2 2 2 1 1 1 1 1 0 1 1 2 0 1 0 0 1 1 2 1 1
9 7 5 3 3 3 1 3 6 7 8 8 9 9 9 10 10 9 9 8 9 9 8 6 5 5 4 2 1 1 1 1 1 0 2 1 0 1 1 1 2 1 1 0 1 1 1 2 1
8 9 6 6 5 4 3 2 4 6 7 9 9 10 10 11 11 10 9 8 9 10 9 7 6 5 5 4 2 1 1 0 0 1 1 0 1 1 2 1 1 2 2 1 1 1 2 2 2
8 8 8 8 6 5 5 2 3 4 4 7 8 9 10 10 11 10 9 8 8 9 9 7 6 6 5 4 3 3 2 1 1 1 1 1 1 1 1 1 1 2 2 2 2 1 1 2 2
10 9 8 8 7 7 6 4 3 5 6 6 8 9 9 9 10 10 9 8 8 9 9 8 7 6 5 4 4 2 1 1 1 0 1 1 1 1 0 0 0 1 1 2 3 2 2 2 2
10 10 8 7 6 8 8 6 3 5 7 6 7 7 9 9 10 10 9 8 7 7 8 8 7 6 5 4 4 3 2 1 0 0 0 1 1 1 0 0 0 1 1 2 2 2 2 2 2
10 8 5 6 6 8 6 3 2 5 6 8 8 8 8 8 9 9 10 9 8 7 7 7 8 7 6 5 4 3 2 2 1 1 1 1 1 0 1 0 0 1 1 2 2 2 2 2 3
10 9 8 7 8 6 3 2 3 2 4 6 8 9 9 8 8 9 9 9 8 8 7 7 8 7 6 6 4 3 3 2 1 1 1 1 1 1 0 1 0 1 2 2 2 2 2 2 3
11 10 10 10 11 9 3 3 1 1 4 4 6 8 7 7 7 7 8 8 9 8 7 7 8 7 6 6 5 4 3 2 1 1 2 1 1 1 1 0 0 1 1 2 2 2 2 2 2
12 10 8 7 7 9 4 3 2 3 4 6 5 6 7 6 5 6 7 7 6 7 6 5 6 7 6 5 4 4 4 3 2 1 1 0 0 1 1 1 1 2 2 2 2 3 2 2 3
9 11 8 7 8 8 5 1 2 3 1 2 6 5 6 7 6 6 6 6 6 6 6 5 6 6 5 4 3 3 3 3 2 2 1 0 0 1 0 1 2 2 1 2 2 3 3 3 3
9 10 9 7 7 7 6 1 3 1 2 2 3 6 6 6 6 7 5 5 6 5 5 4 4 5 5 4 3 3 2 2 3 2 2 1 1 1 0 1 2 2 2 2 3 4 4 3 3
Wind_Direction
202 218 224 241 249 241 55 58 58 59 63 55 55 62 60 52 56 85 97 99 104 108 112 107 101 99 101 103 106 110 114 119 121 122 120 118 117 118 120 123 124 127 131 129 135 133 129 134 148
224 223 231 242 261 54 58 61 63 65 70 73 66 68 70 64 74 95 101 104 110 112 111 106 106 102 104 107 108 110 113 117 121 123 126 125 123 125 128 134 139 140 143 146 147 142 143 146 154
241 239 250 238 309 54 61 60 68 75 76 78 77 64 59 71 78 94 110 116 113 111 110 109 111 108 108 111 110 111 113 115 119 122 125 128 131 135 138 141 147 150 156 162 161 158 165 165 170
238 233 243 254 55 66 70 69 70 77 75 74 81 76 68 69 90 106 121 122 114 111 110 115 115 114 114 114 114 114 115 116 119 123 125 127 131 137 141 142 153 165 168 174 179 175 181 184 189
243 248 249 11 63 75 79 77 73 74 73 74 80 89 85 83 98 112 121 119 113 113 114 118 119 117 117 116 119 119 120 121 123 125 126 125 132 141 149 154 162 173 177 182 180 188 200 205 209
252 236 263 57 71 77 77 74 80 75 80 88 92 97 95 102 106 116 119 117 115 115 116 121 126 127 125 124 125 126 127 127 129 131 134 137 147 153 163 172 176 185 187 188 190 198 207 212 217
255 288 344 62 74 73 72 76 77 83 81 84 100 103 109 110 109 115 121 113 114 117 123 131 136 136 136 135 136 136 136 139 142 144 148 155 164 170 175 182 181 188 196 199 202 206 211 214 217
268 314 342 60 81 75 66 77 78 82 77 82 96 105 120 123 123 124 114 108 111 119 129 137 139 144 148 146 152 153 151 156 157 161 165 174 184 188 187 187 186 194 203 215 217 217 220 222 224
254 286 347 41 75 92 95 91 89 93 96 82 76 98 119 129 132 125 112 110 107 110 121 129 137 148 152 149 149 160 159 164 167 172 180 189 201 189 190 175 176 196 211 221 224 225 226 226 229
212 264 27 37 59 95 100 96 102 108 101 96 96 104 120 132 134 131 130 125 115 117 126 120 124 132 137 139 144 163 163 163 178 171 184 201 207 204 175 165 187 200 213 225 227 228 230 227 225
231 62 46 50 67 77 90 102 101 103 101 113 123 128 136 139 137 137 130 119 121 131 120 115 111 109 118 122 144 154 152 153 173 167 187 207 216 197 170 173 189 206 215 224 219 219 225 222 220
278 328 7 51 68 70 70 84 85 74 93 110 122 133 142 147 146 140 130 129 136 138 126 114 112 102 93 108 137 152 145 151 156 160 201 205 212 259 156 192 198 204 209 209 206 208 216 228 232
287 297 352 81 100 89 87 84 89 96 104 112 123 135 144 147 143 139 139 133 126 126 117 106 111 103 97 85 74 125 137 142 152 155 168 249 207 211 180 65 277 245 212 192 216 217 223 232 232
303 313 292 174 149 133 125 116 112 113 115 117 127 139 143 143 138 136 136 129 130 136 122 116 117 108 103 113 106 94 106 126 131 130 143 223 183 133 201 199 258 289 280 124 265 242 217 224 232
290 275 266 220 179 156 135 123 117 117 124 128 134 139 137 139 140 140 136 137 144 141 125 125 127 123 124 125 149 125 137 135 120 120 132 178 137 116 264 241 230 285 281 212 245 277 256 231 235
265 258 250 234 223 146 148 123 130 142 139 141 143 142 141 142 141 141 138 140 132 131 126 135 141 130 129 121 93 75 98 90 104 120 119 128 104 199 263 257 235 272 270 236 225 253 272 287 266
270 247 252 214 199 141 145 147 154 157 142 142 142 146 149 147 149 143 146 150 138 132 131 134 131 134 139 142 144 154 75 65 89 111 114 131 162 210 249 255 260 261 244 275 278 137 285 274 274
274 271 233 219 162 159 158 144 147 164 145 143 147 151 150 151 152 147 155 154 142 138 136 139 143 134 139 146 153 159 147 163 199 150 117 125 212 275 296 234 227 288 257 300 326 303 269 255 266
270 279 272 251 157 194 167 147 155 162 148 148 152 150 150 151 153 151 160 156 148 146 145 150 155 146 149 159 165 163 173 190 176 170 131 132 309 312 308 331 239 280 308 338 314 295 286 274 254
274 281 283 293 244 228 186 161 158 162 163 158 154 152 157 156 152 154 160 157 154 151 152 154 156 154 163 163 160 167 164 191 172 144 123 139 206 311 279 292 307 287 273 252 278 285 286 281 263
272 281 277 267 246 225 201 202 170 167 166 156 154 157 165 163 158 159 161 162 161 159 160 165 162 160 165 163 163 157 129 288 78 105 114 166 220 228 285 345 311 318 311 274 246 274 276 291 289
276 284 294 286 280 266 235 223 176 165 183 167 164 165 168 163 160 160 161 163 165 162 161 157 153 156 161 166 168 182 177 185 211 198 171 198 214 227 207 320 322 320 328 328 284 287 285 286 284
280 290 293 292 287 282 257 246 177 163 195 188 178 171 164 159 157 156 161 163 164 162 160 152 149 151 155 174 171 185 191 195 209 203 151 229 209 203 223 161 287 301 312 320 320 335 324 315 309
269 277 279 278 268 261 258 265 199 181 189 186 183 171 155 155 155 153 155 156 159 158 153 146 144 150 157 165 168 180 187 179 246 239 193 252 235 194 261 152 222 285 292 297 305 307 313 307 309
257 266 275 274 255 247 224 227 229 171 175 170 171 161 153 154 157 157 157 154 152 150 145 144 146 153 158 162 172 172 183 200 205 252 238 261 267 195 160 330 252 282 287 286 297 289 293 290 291
257 259 262 272 280 274 248 186 176 134 129 150 146 143 145 154 157 157 154 151 156 154 146 147 149 158 165 168 171 170 168 209 207 216 257 277 301 324 84 150 220 283 291 291 286 272 269 278 276
261 259 261 268 272 273 235 172 137 25 113 121 127 129 138 146 152 149 145 149 154 154 153 153 150 158 166 173 168 171 175 192 202 219 229 268 318 312 44 324 276 271 282 291 294 286 291 297 286
255 264 271 269 273 277 249 218 190 181 198 155 132 130 128 116 116 124 132 135 139 142 145 144 151 158 162 171 181 179 180 188 198 213 192 198 323 346 343 338 313 299 294 301 296 286 276 273 274
263 256 264 283 284 283 285 207 151 185 233 132 128 120 114 110 115 118 119 129 131 136 140 150 161 160 160 166 168 170 173 173 176 195 198 207 264 274 298 311 302 306 311 305 295 287 285 282 287
276 273 265 269 280 281 286 210 146 180 106 46 113 123 110 110 118 114 106 111 118 121 126 146 153 150 153 151 159 174 171 176 186 188 196 205 214 232 243 270 288 294 296 295 293 295 297 294 287